Location: Newark
(45.8667°N, 9.7333°E)
Time: 21:59:59
(UTC+00:00)

Transit 4A - Pass Details

Date: 28 January 2020
Orbit: 872 x 973 km, 66.8° (Epoch: 20 February)

Event Time Altitude Azimuth Distance (km) Brightness Sun altitude
Rises 11:58:56 0° 330° (NNW) 3,477 10.5 25.6°
Reaches altitude 10° 12:02:05 10° 346° (NNW) 2,531 9.7 25.6°
Maximum altitude 12:06:27 21° 35° (NE) 1,855 9.2 25.5°
Drops below altitude 10° 12:10:49 10° 84° (E) 2,530 10.1 25.3°
Sets 12:13:56 0° 100° (E) 3,475 10.9 25.2°
